Theta_e
308 308 307 307 307 307 306 306 305 304 302 302 301 300 300 299 299 299 298 298 297 297 296 295 295 294 294 294 294 294 294 294 294 293 293 293 293 293 294 294 294 293 293 293 293 293 293 293 293 294 294 294
308 308 307 307 307 307 307 306 306 305 304 303 302 301 301 300 300 300 299 298 297 297 297 296 294 294 294 293 294 294 293 293 294 293 293 293 293 293 294 294 293 293 293 293 293 293 293 293 293 293 293 293
308 308 307 307 307 307 307 307 306 306 305 304 303 302 301 301 301 301 300 299 298 297 297 296 294 294 293 293 293 293 293 293 293 293 293 293 293 293 293 293 292 292 292 292 292 292 293 293 293 293 293 293
307 308 308 307 307 307 307 306 306 306 305 305 304 304 303 302 302 301 301 300 299 298 298 297 295 293 293 292 292 292 292 292 292 292 292 292 292 292 292 292 292 291 291 291 291 292 292 292 292 292 292 292
307 307 307 307 307 307 307 306 306 306 305 305 305 304 303 303 303 302 301 300 299 298 299 298 294 293 292 292 292 292 292 292 292 292 292 291 292 292 292 291 291 291 291 291 291 291 291 291 291 291 292 292
307 307 307 307 307 307 307 306 306 306 305 305 305 304 304 304 303 302 301 300 299 298 299 298 294 293 293 292 292 292 292 292 292 291 292 292 292 292 292 291 291 291 291 291 291 291 291 291 291 291 292 292
307 307 307 307 307 307 307 306 306 306 305 305 305 304 304 304 303 302 302 301 299 298 299 297 294 293 292 292 291 292 292 292 291 291 292 292 292 292 292 291 291 291 291 290 290 290 290 290 291 291 291 292
307 307 307 307 307 307 307 306 306 306 305 305 305 304 304 304 303 303 302 301 300 299 299 297 295 293 292 292 292 292 292 291 291 291 292 292 292 292 292 291 291 291 291 290 290 290 290 290 290 291 291 291
307 307 306 307 307 307 307 306 306 306 305 305 304 304 304 304 303 303 302 301 300 300 299 298 296 294 293 292 292 292 291 291 291 291 291 291 291 292 291 291 291 291 291 290 290 290 290 290 290 290 291 291
307 306 306 306 306 306 306 306 306 306 305 305 304 304 304 303 303 303 302 301 301 300 299 298 296 295 293 292 292 291 291 290 290 291 291 291 291 291 291 291 291 291 291 290 290 290 290 290 290 290 290 291
307 306 306 306 306 306 306 306 306 306 306 305 305 304 304 303 303 303 302 302 301 301 300 298 296 295 293 292 291 291 290 290 290 290 290 291 291 291 291 291 291 291 291 290 290 290 290 290 290 290 290 290
307 307 306 306 306 306 306 306 306 306 306 305 305 304 304 303 303 302 302 301 301 300 300 299 297 294 293 292 291 291 290 290 290 290 290 290 290 291 291 291 291 291 291 291 290 290 290 290 290 290 290 290
308 307 307 306 306 306 306 306 306 305 305 305 305 305 304 303 303 303 302 302 301 300 299 299 297 295 294 292 291 291 290 290 290 290 290 290 290 290 290 290 291 290 291 291 291 290 290 290 290 289 289 290
308 308 307 307 307 306 306 306 305 305 305 305 305 305 304 304 303 303 303 302 301 300 300 299 297 296 294 293 291 291 290 290 290 290 289 290 290 290 290 290 290 290 290 290 290 290 290 290 290 289 289 290
309 308 308 308 307 307 306 306 306 305 305 305 305 305 305 304 304 303 303 302 301 300 300 299 298 297 295 293 292 290 290 290 289 289 289 289 289 289 289 289 290 290 290 290 290 290 290 290 290 289 289 289
309 309 308 308 307 307 307 306 306 305 305 305 305 305 304 304 304 303 303 302 302 301 300 299 298 297 296 294 292 290 289 289 289 289 289 289 289 289 289 289 289 289 289 289 289 290 290 290 289 289 289 289
310 309 309 309 308 308 307 307 306 306 306 306 305 305 304 304 304 304 303 303 302 301 300 299 298 297 296 295 292 290 289 289 289 289 289 289 289 289 289 289 289 289 289 289 289 289 289 289 289 289 289 289
310 310 309 309 308 308 307 307 307 306 306 306 305 305 304 304 304 304 303 303 302 301 301 300 299 298 297 296 293 290 289 289 289 289 289 289 289 288 288 288 288 288 288 288 289 289 289 289 288 288 288 288
310 310 309 309 309 308 308 308 307 307 307 306 306 305 305 304 304 304 303 303 302 302 301 301 300 299 298 296 293 291 290 289 289 289 289 288 288 288 288 288 288 288 288 288 288 288 288 288 288 288 288 288
310 310 309 309 309 308 308 308 307 307 307 306 306 306 305 305 304 304 303 303 302 302 301 301 300 300 298 296 294 292 290 289 289 288 288 288 288 288 288 288 288 288 288 288 288 288 288 288 288 287 288 288
309 309 309 309 308 308 308 308 308 307 307 307 306 306 305 305 304 304 303 303 302 302 301 301 300 300 298 296 294 292 290 289 289 288 288 288 287 287 287 287 287 287 287 287 287 288 288 288 287 287 287 287
309 309 309 309 309 308 308 308 308 307 307 307 307 307 306 305 305 304 303 303 302 302 301 301 300 300 298 297 294 292 290 289 289 288 288 287 287 287 287 287 287 287 287 287 287 287 288 288 287 287 287 287
308 308 309 309 308 308 308 308 308 308 308 307 307 307 306 306 305 304 303 303 302 301 301 301 300 300 299 298 295 293 291 289 289 288 288 287 287 287 287 287 287 287 287 287 287 287 287 287 287 287 286 287
307 308 308 308 308 308 308 308 307 307 307 307 307 306 306 306 305 305 304 303 302 301 301 300 300 299 299 298 297 294 292 290 290 289 288 287 287 287 286 286 286 286 286 286 286 287 287 287 287 287 287 287
305 305 306 306 307 307 307 307 307 307 307 306 306 306 306 305 305 304 304 303 302 301 301 300 300 299 298 298 297 296 294 291 290 289 288 287 286 286 286 286 286 286 286 286 286 286 287 287 287 286 287 287
302 303 303 304 305 306 306 306 306 306 306 306 305 305 305 305 304 304 303 303 302 302 301 300 300 299 298 298 297 297 295 292 290 289 288 287 286 286 286 286 286 286 286 286 286 286 286 287 287 286 286 287
301 302 303 303 304 304 305 305 305 305 305 305 305 304 304 304 304 303 303 303 302 302 301 300 300 299 298 297 297 296 295 293 291 289 288 287 286 286 286 286 286 286 286 285 285 285 284 285 286 286 286 286
300 301 302 303 303 303 304 304 304 304 304 304 304 304 304 304 303 303 303 302 302 301 300 300 299 299 298 297 296 296 295 294 292 290 288 287 286 285 285 285 285 285 285 285 285 284 284 284 283 284 285 286
298 299 300 301 302 302 303 303 303 303 303 303 303 303 303 302 302 302 302 302 301 301 300 300 299 298 298 297 296 295 295 294 292 291 289 288 287 286 285 285 285 285 285 285 285 284 284 283 282 283 284 284
297 297 298 298 299 300 300 301 301 301 301 301 301 301 301 301 301 301 301 301 300 300 299 299 299 298 297 296 296 295 295 294 292 291 289 288 287 286 285 285 284 284 285 285 285 285 284 283 282 282 282 282
296 296 296 296 296 296 297 298 299 299 299 299 299 300 300 300 300 300 300 300 299 299 299 298 298 298 297 296 295 295 294 293 292 291 290 288 287 286 285 284 284 284 284 285 285 285 284 284 283 282 281 281
Wind_Speed
14 13 11 10 10 9 9 10 10 10 11 10 9 8 8 7 6 5 4 4 4 4 5 5 6 7 8 10 10 11 12 13 13 14 15 16 16 17 18 18 16 15 15 16 16 16 16 15 15 14 14 13
16 14 13 12 11 10 10 10 10 10 11 11 11 10 9 8 7 6 6 5 5 5 6 6 7 8 9 10 11 12 12 14 14 15 16 17 18 18 18 17 16 16 16 16 16 17 17 15 15 15 14 14
17 16 15 14 13 12 12 12 11 11 11 11 11 11 10 10 9 8 7 6 6 7 7 7 8 9 10 12 12 13 13 14 15 15 17 18 19 19 18 16 15 16 16 16 16 17 16 15 15 15 14 14
19 18 17 16 15 14 14 14 13 13 12 11 11 11 11 10 10 9 8 8 8 8 9 8 9 10 11 13 14 14 15 16 15 15 17 18 18 18 16 14 14 15 15 15 16 16 15 15 15 15 15 14
20 19 19 18 17 17 17 16 15 15 14 13 12 12 12 11 11 10 10 10 9 10 10 8 9 11 12 13 15 16 17 16 16 15 17 18 18 18 15 14 14 15 15 15 16 15 15 15 15 15 15 14
22 21 21 21 20 19 19 18 17 17 16 15 14 13 13 12 11 11 11 11 11 11 11 9 10 12 13 14 16 17 17 16 16 16 17 18 19 18 15 14 15 15 15 16 16 16 16 16 16 16 16 15
23 23 23 23 23 22 22 21 20 19 18 17 16 15 14 13 12 12 12 12 12 13 12 11 13 14 15 16 18 19 18 16 16 17 18 18 19 17 15 15 16 16 16 16 16 16 17 17 17 17 17 16
25 25 25 25 25 25 24 23 22 21 21 20 18 17 15 14 14 14 14 14 14 14 14 14 15 16 17 18 19 19 17 16 17 18 18 18 18 17 16 16 16 16 16 16 17 17 17 17 18 17 17 16
27 27 27 28 27 27 27 26 25 24 23 22 21 20 18 16 16 16 16 16 16 16 16 16 16 17 18 20 20 18 17 17 18 19 18 18 17 17 16 16 16 16 16 16 17 17 17 18 18 17 16 16
28 28 29 29 29 29 29 29 29 27 26 25 24 22 20 19 18 18 18 18 18 17 17 17 18 18 19 20 20 19 19 19 19 19 19 18 18 17 17 16 16 16 16 17 17 17 17 18 18 17 16 16
31 30 30 30 31 32 32 32 31 31 30 28 26 24 23 22 21 20 20 20 19 19 19 18 19 19 19 20 20 20 20 20 20 20 20 19 18 18 17 17 16 16 16 17 17 17 17 18 18 16 16 16
33 32 32 32 33 34 34 34 34 34 33 31 29 27 26 25 24 23 22 22 21 20 20 20 20 20 20 21 21 21 21 21 21 20 20 20 19 19 18 17 17 17 17 17 17 17 18 18 18 17 16 16
35 34 33 33 34 34 35 36 35 36 35 34 32 30 28 27 26 25 24 23 22 22 22 21 21 22 22 22 22 22 22 22 22 21 21 20 20 19 19 18 18 18 18 17 17 18 18 19 18 17 17 17
36 36 36 35 34 34 35 35 36 37 37 37 36 34 32 30 29 27 25 24 24 23 23 22 23 23 23 23 23 23 23 23 22 22 21 21 21 20 20 19 19 18 18 17 17 18 18 20 19 18 17 17
37 38 37 36 35 35 35 35 36 37 38 38 38 37 35 33 31 29 28 26 25 25 24 24 24 24 24 24 24 24 24 24 24 23 22 22 21 21 21 20 20 18 18 18 18 18 19 20 20 19 18 18
38 39 38 38 37 36 35 35 37 37 37 38 38 39 38 36 34 32 30 28 27 27 26 25 25 25 26 25 25 25 24 25 25 24 23 23 22 22 22 21 20 19 18 18 18 18 19 20 20 19 19 18
38 39 39 39 39 37 37 37 37 37 37 37 38 39 40 39 36 34 32 31 29 28 27 27 27 27 27 26 26 26 26 26 27 26 25 24 23 23 22 22 21 20 19 19 19 19 19 19 19 19 19 19
36 37 38 38 38 38 38 38 38 38 37 38 39 40 40 40 39 37 35 33 31 30 29 29 28 28 28 27 27 27 28 28 28 27 26 25 24 23 23 23 22 21 20 20 19 19 19 19 20 20 20 20
32 33 34 35 36 37 37 38 38 38 38 39 40 40 41 40 40 39 37 35 33 32 31 31 30 30 29 29 29 29 29 30 30 28 27 26 25 24 24 23 23 22 21 21 20 19 19 20 20 20 20 20
31 32 32 33 34 35 37 38 39 39 39 40 41 41 41 41 41 40 39 38 36 34 33 32 32 32 30 30 31 31 31 32 32 30 29 27 26 26 25 24 24 23 22 21 20 20 20 20 20 20 20 21
31 32 31 32 33 34 35 36 37 37 39 40 41 41 42 41 41 41 41 39 38 36 35 34 34 33 32 32 33 33 33 33 33 32 30 29 28 27 26 26 25 24 23 22 21 20 20 21 21 21 21 21
29 29 29 29 29 30 31 32 33 34 36 37 39 40 41 41 41 41 41 40 39 38 37 36 35 34 34 34 34 34 34 34 34 34 32 31 29 29 28 27 26 25 24 24 23 22 21 21 21 21 21 21
25 24 24 24 25 25 26 25 26 28 30 32 34 36 38 40 40 40 40 40 39 38 38 37 36 36 35 36 36 36 36 35 36 36 35 32 30 30 29 28 27 26 26 26 25 23 22 22 22 22 21 21
24 22 21 21 22 23 23 23 24 26 27 29 30 32 34 36 37 38 38 38 39 38 38 38 37 37 37 37 38 39 38 37 37 37 36 33 31 31 30 29 28 27 27 27 26 25 24 23 22 22 22 22
22 22 23 23 22 22 23 24 26 27 27 28 29 30 31 32 33 35 36 37 37 38 38 37 37 38 38 38 39 40 40 38 37 37 36 33 32 32 31 30 29 28 27 28 27 26 24 23 23 24 23 21
18 19 21 23 24 24 25 26 27 28 28 29 30 30 31 31 32 32 33 35 36 36 37 36 37 37 38 38 39 40 40 39 38 38 37 35 34 33 32 31 29 28 27 27 27 26 26 24 21 21 20 18
22 20 20 21 23 25 26 27 28 29 29 29 29 30 31 31 31 31 31 32 34 35 35 35 35 36 37 38 38 39 41 41 39 39 38 36 35 34 33 32 30 29 27 27 26 24 24 21 18 19 17 14
26 23 21 20 20 22 24 26 27 29 29 29 30 31 31 31 30 30 31 31 33 34 34 33 33 33 35 36 37 39 40 41 40 39 38 37 35 35 34 33 31 29 27 27 25 20 17 16 17 16 13 10
26 24 22 20 19 19 20 21 23 25 27 29 32 33 32 31 30 30 30 30 32 33 34 34 32 33 35 36 37 39 40 41 40 39 38 36 35 35 34 32 30 29 28 27 26 22 20 17 13 11 13 16
28 26 25 24 23 22 22 21 21 21 24 27 29 30 30 29 29 29 29 29 30 32 34 35 34 35 35 36 37 38 40 41 41 40 38 36 35 34 33 31 31 31 29 28 27 26 25 22 18 18 20 20
32 30 29 29 28 28 28 26 25 23 23 25 26 27 28 28 28 28 28 28 29 30 32 34 35 36 36 37 38 38 40 41 41 40 38 36 35 33 32 33 33 31 30 30 29 26 25 25 25 25 23 20
Wind_Direction
217 216 216 218 218 212 204 197 196 189 191 196 198 206 207 211 215 219 229 240 258 273 282 281 280 278 277 277 274 272 267 266 265 264 266 266 266 266 270 274 280 282 280 281 283 283 284 289 293 294 296 299
221 219 219 223 227 228 225 216 212 205 199 199 201 208 210 214 216 218 223 230 243 254 265 267 267 269 269 270 270 268 264 264 265 265 266 267 268 269 272 278 281 280 279 281 281 281 284 287 290 291 294 298
225 223 222 224 230 235 236 231 224 219 213 207 205 210 213 216 218 219 221 226 235 245 256 258 259 262 263 264 265 265 263 262 263 263 263 263 265 268 272 276 277 275 276 276 276 277 281 284 286 290 293 295
229 227 227 227 231 237 239 238 232 228 225 218 213 214 216 218 220 221 222 226 232 241 250 252 254 258 258 260 262 263 263 264 266 265 262 265 267 271 276 278 276 274 275 274 275 278 281 284 286 289 291 292
232 230 230 230 233 238 241 240 238 236 232 228 223 220 221 221 222 223 225 229 232 240 248 250 251 254 256 258 261 262 264 267 269 268 266 269 273 277 283 282 278 277 277 277 278 281 283 286 287 289 290 292
234 234 233 234 235 238 242 242 242 241 239 236 231 227 226 225 225 226 229 233 236 242 249 250 249 252 254 256 259 261 264 268 269 268 269 272 276 283 286 281 279 279 279 280 281 283 285 286 288 289 290 292
237 237 238 238 237 239 242 243 245 245 243 241 238 234 232 230 228 228 230 234 237 242 249 249 248 250 251 252 254 257 261 264 264 265 269 272 278 283 282 278 278 279 279 280 281 283 285 286 288 288 289 291
241 241 242 242 240 241 242 244 246 246 246 244 243 240 236 235 232 232 233 235 238 241 246 247 247 247 247 248 251 256 259 259 259 262 267 271 275 277 276 276 276 277 277 278 279 281 283 285 286 285 288 290
245 245 244 246 244 244 244 245 247 247 248 247 246 243 241 240 236 236 237 237 240 242 244 246 247 247 247 249 253 257 257 256 258 261 265 268 271 273 273 273 274 274 274 275 276 277 280 282 283 284 287 289
248 247 247 249 249 248 248 247 248 249 250 250 248 246 245 243 241 240 240 241 243 245 246 246 247 248 249 251 253 255 254 254 256 259 262 265 267 270 270 271 272 272 272 273 273 274 277 279 281 283 285 286
249 249 250 251 251 251 251 250 250 251 253 252 251 249 248 247 246 245 244 244 246 248 248 248 248 249 250 250 251 252 252 253 254 256 259 263 265 267 268 270 271 272 272 272 273 273 276 279 281 282 283 284
251 252 252 252 252 252 253 253 253 254 254 254 254 253 252 251 249 247 247 248 248 250 250 250 249 249 250 249 249 250 250 250 252 254 257 260 263 265 267 269 271 272 272 272 273 274 276 280 282 282 283 283
253 253 254 253 253 254 255 255 256 257 255 255 255 255 255 254 253 251 251 252 252 251 251 252 250 249 250 249 249 249 249 250 251 253 255 258 261 263 266 268 270 270 271 273 274 275 277 280 282 283 282 283
256 255 255 256 257 257 257 258 259 258 257 256 256 256 257 256 256 255 255 256 254 253 253 253 252 252 252 250 249 249 250 251 251 252 254 257 260 263 265 267 268 270 273 275 277 277 277 280 282 283 283 283
259 258 259 259 260 260 260 261 260 259 259 258 258 258 258 257 257 257 257 257 256 255 254 253 253 253 253 252 251 250 251 251 251 253 254 257 260 262 265 266 269 271 274 277 278 278 277 279 282 285 285 285
262 262 263 263 262 263 263 263 262 261 261 261 261 259 258 258 258 258 258 258 258 257 255 254 254 254 254 253 253 252 252 252 253 253 254 257 259 262 265 268 271 273 275 277 278 279 278 279 283 286 287 286
265 266 266 266 266 266 266 265 265 265 264 263 262 261 259 258 258 259 259 260 260 260 258 257 255 254 254 254 253 252 252 253 253 254 255 258 260 264 267 269 272 274 275 277 278 280 279 281 285 286 287 286
268 269 269 268 268 269 268 268 268 268 268 266 264 262 261 259 258 258 260 261 261 262 261 259 258 256 256 254 253 251 251 253 254 255 256 258 260 263 266 269 271 273 274 276 279 281 281 283 286 286 286 284
273 273 272 272 272 271 271 270 270 271 271 270 268 266 264 261 259 259 260 261 262 262 263 262 261 259 258 256 253 251 251 253 255 256 257 258 260 262 265 267 269 272 273 275 278 280 281 283 285 286 284 283
275 275 274 273 273 272 272 271 271 272 272 272 271 269 268 265 263 261 260 260 261 262 263 263 263 261 259 256 253 252 251 252 254 256 257 258 259 261 263 265 267 269 271 274 277 279 281 282 284 285 284 281
277 276 275 274 274 274 273 274 274 275 274 273 273 272 270 268 265 263 261 260 261 262 263 264 264 262 259 256 254 252 251 252 254 255 256 257 259 260 262 264 266 268 270 272 273 275 278 280 283 284 282 280
279 277 277 278 278 278 278 279 280 279 278 278 278 276 274 271 267 264 262 260 260 261 263 264 264 262 260 258 255 252 250 251 252 254 254 254 256 258 261 263 265 268 268 270 271 273 276 278 281 283 281 279
283 280 279 279 279 280 281 283 284 284 284 284 283 282 280 276 272 268 263 260 259 260 262 263 264 262 261 259 256 253 250 249 250 252 252 252 254 257 260 262 264 266 267 270 271 273 275 277 280 282 281 279
291 286 282 281 282 282 282 283 282 281 282 283 283 284 283 280 277 274 268 263 260 260 261 263 264 263 261 259 257 255 252 250 250 252 253 252 254 256 258 260 261 263 266 269 271 273 275 277 280 281 280 278
303 296 292 291 291 289 286 284 281 279 281 283 284 285 284 282 280 276 272 268 264 261 261 263 264 263 261 258 257 256 255 253 252 252 252 251 252 253 255 256 258 260 263 267 271 274 275 277 280 281 279 277
321 312 306 301 300 297 292 288 284 283 284 286 287 286 285 283 281 277 272 269 266 264 263 263 265 264 262 259 257 256 256 254 251 250 250 249 248 250 252 254 255 258 261 266 271 277 281 282 281 280 279 276
339 327 318 310 306 303 298 294 290 287 287 288 288 288 286 284 284 281 275 270 266 264 262 263 265 265 264 261 258 256 256 254 250 249 249 248 247 248 251 252 253 255 259 263 270 279 283 285 288 286 282 274
354 341 328 316 306 301 299 296 294 292 291 291 290 288 287 288 289 285 279 274 269 264 261 262 265 266 265 263 260 258 256 255 252 249 248 247 246 247 248 251 253 254 257 260 265 272 274 282 292 289 282 273
5 355 342 327 313 304 300 297 296 297 298 298 296 294 293 293 292 288 284 279 274 268 265 263 264 267 267 265 263 260 257 256 254 251 250 248 247 247 248 251 253 254 256 258 260 262 264 272 277 274 284 293
10 7 2 354 343 333 326 315 308 310 309 304 300 299 297 294 291 290 287 283 278 274 270 267 266 267 268 267 266 263 260 257 255 252 249 247 246 246 247 249 251 251 253 256 258 259 262 265 265 269 282 291
9 8 7 6 3 357 350 336 323 320 316 311 305 299 295 293 290 287 286 285 282 278 274 271 269 268 269 268 268 266 263 258 256 254 251 248 246 246 247 247 248 249 251 254 256 257 262 266 267 270 273 273